This is the latest recevied weather packets stored in our database for station/object SR8WXL-13. If no packets are shown the sender has not sent any weather packets the latest 10 day(s).
| Time | Temp. | Humidity | Pressure | Rain* | Wind** | Luminosity | Snow |
|---|---|---|---|---|---|---|---|
| 1787491023 | 21.11° C | 52% | 1035.2 hPa | 0 mm | - | - | - |
| 1787490275 | 21.11° C | 53% | 1035.3 hPa | 0 mm | - | - | - |
| 1787489411 | 20° C | 52% | 1035.5 hPa | 0 mm | - | - | - |
| 1787488530 | 21.11° C | 51% | 1035.5 hPa | 0 mm | - | - | - |
| 1787487692 | 21.11° C | 51% | 1035.4 hPa | 0 mm | - | - | - |
| 1787486820 | 20° C | 56% | 1035.4 hPa | 0 mm | - | - | - |
| 1787486011 | 20° C | 55% | 1035.4 hPa | 0 mm | - | - | - |
| 1787485185 | 20° C | 54% | 1035.6 hPa | 0 mm | - | - | - |
| 1787484459 | 20° C | 54% | 1035.2 hPa | 0 mm | - | - | - |
| 1787483729 | 20° C | 56% | 1035.6 hPa | 0 mm | - | - | - |
| 1787482861 | 20° C | 56% | 1035.7 hPa | 0 mm | - | - | - |
| 1787482030 | 20° C | 56% | 1035.7 hPa | 0 mm | - | - | - |
| 1787481244 | 18.89° C | 58% | 1035.6 hPa | 0 mm | - | - | - |
| 1787480450 | 18.89° C | 60% | 1035.6 hPa | 0 mm | - | - | - |
| 1787479726 | 20° C | 59% | 1035.9 hPa | 0 mm | - | - | - |
| 1787478830 | 18.89° C | 64% | 1035.9 hPa | 0 mm | - | - | - |
| 1787478053 | 18.89° C | 60% | 1035.9 hPa | 0 mm | - | - | - |
| 1787477179 | 18.89° C | 65% | 1035.6 hPa | 0 mm | - | - | - |
| 1787476281 | 18.89° C | 65% | 1035.8 hPa | 0 mm | - | - | - |
| 1787475382 | 18.89° C | 67% | 1036 hPa | 0 mm | - | - | - |
| 1787474584 | 17.78° C | 68% | 1035.7 hPa | 0 mm | - | - | - |
| 1787473684 | 17.22° C | 71% | 1035.7 hPa | 0 mm | - | - | - |
| 1787472930 | 17.22° C | 70% | 1035.9 hPa | 0 mm | - | - | - |
| 1787472105 | 17.22° C | 72% | 1035.6 hPa | 0 mm | - | - | - |
| 1787471245 | 17.22° C | 73% | 1035.7 hPa | 0 mm | - | - | - |
* Rain latest hour (hover to see other rain measurements)
** Current wind speed in m/s (hover to see current wind gust speed)